This is the latest recevied weather packets stored in our database for station/object DK9HI-WX. If no packets are shown the sender has not sent any weather packets the latest 10 day(s).
| Time | Temp. | Humidity | Pressure | Rain* | Wind** | Luminosity | Snow |
|---|---|---|---|---|---|---|---|
| 1777318964 | 14.44° C | 40% | 1023.9 hPa | - | - | - | - |
| 1777318364 | 14.44° C | 39% | 1023.8 hPa | - | - | - | - |
| 1777317764 | 14.44° C | 39% | 1023.7 hPa | - | - | - | - |
| 1777317164 | 15° C | 38% | 1023.6 hPa | - | - | - | - |
| 1777316564 | 15° C | 37% | 1023.6 hPa | - | - | - | - |
| 1777315967 | 15.56° C | 36% | 1023.4 hPa | - | - | - | - |
| 1777315364 | 15.56° C | 36% | 1023.3 hPa | - | - | - | - |
| 1777314764 | 16.11° C | 36% | 1023.3 hPa | - | - | - | - |
| 1777314164 | 16.11° C | 35% | 1023.2 hPa | - | - | - | - |
| 1777313564 | 16.67° C | 34% | 1023.2 hPa | - | - | - | - |
| 1777312964 | 16.67° C | 34% | 1023.1 hPa | - | - | - | - |
| 1777312364 | 17.22° C | 35% | 1023.1 hPa | - | - | - | - |
| 1777311764 | 17.22° C | 35% | 1023.2 hPa | - | - | - | - |
| 1777311164 | 17.78° C | 34% | 1023.1 hPa | - | - | - | - |
| 1777310564 | 17.78° C | 34% | 1023.1 hPa | - | - | - | - |
| 1777309964 | 18.33° C | 33% | 1023.1 hPa | - | - | - | - |
| 1777309364 | 18.89° C | 32% | 1023.2 hPa | - | - | - | - |
| 1777308764 | 18.89° C | 33% | 1023.2 hPa | - | - | - | - |
| 1777308164 | 18.89° C | 33% | 1023.1 hPa | - | - | - | - |
| 1777307565 | 18.89° C | 32% | 1023.2 hPa | - | - | - | - |
| 1777306964 | 18.89° C | 32% | 1023.2 hPa | - | - | - | - |
| 1777306365 | 18.89° C | 34% | 1023.3 hPa | - | - | - | - |
| 1777305766 | 18.33° C | 34% | 1023.4 hPa | - | - | - | - |
| 1777305163 | 18.33° C | 35% | 1023.4 hPa | - | - | - | - |
| 1777304566 | 18.33° C | 37% | 1023.4 hPa | - | - | - | - |
* Rain since midnight (hover to see other rain measurements)
** Current wind speed in m/s (hover to see current wind gust speed)